Regional Weather Roundup
Issued by NWS

Home | Current Version | Previous Version | Graphics & Text | Print | Product List | Glossary On
Versions: 1 2 3 4 5 6 7 8 9 10 11 12 13 14 15 16 17 18 19 20 21 22 23 24 25 26 27 28 29 30 31 32 33 34 35 36 37 38 39 40 41 42 43 44 45 46 47 48 49 50
000
ASUS45 KTFX 230604
RWRMT
MONTANA HOURLY WEATHER ROUNDUP
NATIONAL WEATHER SERVICE GREAT FALLS MT
1204 AM MDT WED APR 23 2014

NOTE: "FAIR" INDICATES FEW OR NO CLOUDS BELOW 12000 FEET WITH NO
SIGNIFICANT WEATHER AND/OR OBSTRUCTIONS TO VISIBILITY.

* THESE STATIONS ARE NOT UNDER NWS QUALITY CONTROL. THEY DO NOT
   REPORT WEATHER SUCH AS PRECIPITATION OR FOG.

MTZ001>007-043-230700-
WEST OF THE DIVIDE
CITY           SKY/WX    TMP DP  RH WIND       PRES   REMARKS
KALISPELL      CLOUDY    43  34  71 S12       29.68R
MISSOULA       CLOUDY    39  34  82 W7        29.78R WCI  34
BUTTE          LGT SNOW  34  30  85 N8        29.65F WCI  27
MULLAN PASS    CLOUDY    27  23  85 SW9G26    29.73R WCI  18
* ESSEX        N/A       37  35  92 N3         N/A
* LINCOLN      N/A       36  32  85 SW8G21     N/A   WCI  30
* LOOKOUT PASS N/A       34  25  70 SE11G16    N/A   WCI  26
* POLSON       N/A       36  33  89 S2G7       N/A
* SEELEY LAKE  N/A       35  33  92 E2G12      N/A
* THOMP F APT  CLOUDY    34  34 100 W4G10      N/A
$$

MTZ008-052>055-230700-
SOUTHWEST MONTANA
CITY           SKY/WX    TMP DP  RH WIND       PRES   REMARKS
BOZEMAN        LGT RAIN  39  36  89 SW10      29.63R WCI  32
DILLON         CLOUDY    36  36 100 SE6       29.64S WCI  31
W YELLOWSTONE  N/A       33  32  96 W2         N/A
* THREE FORKS  CLOUDY    43  43 100 SW6        N/A
* BOULDER HILL N/A       35  28  76 N3G11      N/A
* MONIDA PASS  N/A       31  31 100 W9         N/A   WCI  23
* RAYNOLDS PAS N/A       33   9  36 SE20G25    N/A   WCI  21
* WHITEHALL    N/A       41  39  93 SW10G19    N/A
* WISE RIVER   N/A       32  32 100 NW9G15     N/A   WCI  24
$$

MTZ009>010-012-014-046-048-049-054-230700-
EAST SLOPES AND CENTRAL MONTANA
CITY           SKY/WX    TMP DP  RH WIND       PRES   REMARKS
CUT BANK       CLOUDY    43  39  86 W13       29.51S
GREAT FALLS    CLOUDY    43  41  93 W5        29.55R
HELENA         CLOUDY    43  34  71 W17G25    29.61R
MALMSTROM AFB  LGT RAIN  45  39  80 CALM      29.54R
* CONRAD       CLOUDY    43  41  93 W7         N/A
* DEARBORN     N/A       44  41  89 S4         N/A
* EAST GLACIER N/A       38  27  65 W22G34     N/A   WCI  27
* MONARCH      N/A       34  31  89 W9         N/A   WCI  27
* PENDROY      N/A       41  34  76 NW6G11     N/A
* ROGERS PASS  N/A       33  31  92 SE10G17    N/A   WCI  25
* SAINT MARY   N/A       39  30  70 S10G20     N/A   WCI  32
* SWEET GRASS  N/A       43  43 100 W16G22     N/A
$$

MTZ011-013-016-021-035-040-045-047-050-051-230700-
NORTH CENTRAL MONTANA
CITY           SKY/WX    TMP DP  RH WIND       PRES   REMARKS
HAVRE          CLOUDY    48  45  89 W10       29.45F
LEWISTOWN      LGT RAIN  43  43 100 W15       29.53R
* CHESTER      N/A       44  40  86 NW18G28    N/A
* DENTON       N/A       44  42  93 W14G23     N/A
* JUDITH GAP   N/A       41  41 100 VRB18G25    N/A
* LOMA         N/A       46  43  89 SW12G17    N/A
$$

MTZ017>020-022>027-061-062-230700-
NORTHEAST MONTANA
CITY           SKY/WX    TMP DP  RH WIND       PRES   REMARKS
GLASGOW        PTCLDY    57  32  39 E24G31    29.41F
GLENDIVE       CLOUDY    55  30  39 E20G26    29.48F
JORDAN         CLOUDY    59  36  42 E14       29.35F
SIDNEY         CLOUDY    57  30  36 SE18G28   29.54F
WOLF POINT     MOCLDY    59  30  33 E17       29.47F
* BEAVER HILL  N/A       53  31  43 E32G41     N/A
* CIRCLE       N/A       57  35  44 E18G23     N/A
* LINDSAY DVD  N/A       53  32  45 E20G27     N/A
* NAVAJO       N/A       54  31  42 E19G26     N/A
* SACO         N/A       60  33  36 E28G34     N/A
$$

MTZ028>042-056>058-230700-
SOUTHCENTRAL AND SOUTHEAST MONTANA
CITY           SKY/WX    TMP DP  RH WIND       PRES   REMARKS
BAKER          CLOUDY    54  34  47 E15       29.49F
BILLINGS       CLOUDY    57  43  60 NW25G37   29.36R
LIVINGSTON     LGT RAIN  41 N/A N/A W20       29.55R
MILES CITY     CLOUDY    61  37  41 SE9       29.38F
* LAUREL APT   CLOUDY    57  37  47 W24G31     N/A
* ROUNDUP APT  CLOUDY    61  37  41 NW11G21    N/A
* HYSHAM       N/A       62  36  38 SE7G14     N/A
* REED POINT   N/A       49  36  61 W29G38     N/A
* ROSCOE HILL  N/A       49  33  54 NW4G11     N/A
$$

REGIONAL REPORTS...DAKOTAS
CITY           SKY/WX    TMP DP  RH WIND       PRES   REMARKS
WILLISTON      CLOUDY    54  32  43 E16G23    29.59F
DICKINSON      CLOUDY    54  30  40 SE22G30   29.56F
CROSBY         CLEAR     50  32  50 SE21G32   29.67F
TIOGA          CLEAR     50  32  50 E21G29    29.70F
WATFORD CITY   MOCLDY    55  30  39 SE20G32   29.57F
BISMARCK       CLOUDY    57  34  42 SE21G30   29.71F
GRAND FORKS    MOCLDY    46  27  48 SE14      29.97S
FARGO          PTCLDY    48  30  50 SE16      29.95F
BUFFALO SD     CLOUDY    54  36  51 E13       29.44F
RAPID CITY     CLOUDY    57  45  64 S13       29.55F
$$

REGIONAL REPORTS...WYOMING/IDAHO/WASHINGTON
CITY           SKY/WX    TMP DP  RH WIND       PRES   REMARKS
GILLETTE       CLOUDY    54  43  67 S16       29.46F
SHERIDAN       MOCLDY    57  41  55 S15       29.37F
CODY           MOCLDY    55  36  49 W12G22    29.43F
YELLOWSTONE LA CLOUDY    30  27  89 VRB3      29.68S
SALMON         CLOUDY    39  25  57 N10G16    29.76R WCI  32
MULLAN PASS    CLOUDY    27  23  85 SW9G26    29.73S WCI  18
SPOKANE        FAIR      37  27  67 SW12      29.79R WCI  29
$$

REGIONAL REPORTS...ALBERTA
CITY           SKY/WX    TMP DP  RH WIND       PRES   REMARKS
MEDICINE HAT   RAIN      48  46  93 SW10      29.44R

$$




USA.gov is the U.S. government's official web portal to all federal, state and local government web resources and services.